Location: Chassagnes
(44.4047°N, 4.1657°E)
Time: 13:06:52
(UTC+00:00)

Cosmos 1503 Rocket - Pass Details

Date: 27 October 2020
Orbit: 752 x 791 km, 74.0° (Epoch: 23 November)

Event Time Altitude Azimuth Distance (km) Brightness Sun altitude
Rises 18:27:35 0° 341° (NNW) 3,228 7.5 -19.9°
Reaches altitude 10° 18:29:58 10° 344° (NNW) 2,304 6.7 -20.3°
Maximum altitude 18:35:11 68° 67° (ENE) 829 3.9 -21.2°
Enters shadow 18:37:12 37° 138° (SE) 1,180 4.6 -21.6°
